Flag for Hungary Weather past 2 weeks in Szeged, Hungary

Now
65 °F

Overcast.


Feels Like: 65 °F
Forecast: 43 / 56 °F
Wind: 2 mph from Northeast

Location: Szeged

Current Time: Oct 21, 2014 at 3:11:59 PM

Latest Report: Oct 21, 2014 at 2:00 PM


Visibility: 8 mi

Pressure: 29.86 "Hg

Humidity: 73%

Dew point: 57 °F

Location of SzegedLocation

Historic Weather in Szeged — Graph

°F

Szeged temperature yesterday

Maximum temperature yesterday: 77 °F (at 4:00 PM)
Minimum temperature yesterday: 46 °F (at 1:00 AM)
Average temperature yesterday: 59 °F

Past Weeks' High & Low Weather Summary

 TemperatureHumidityPressure
High81 °F (Oct 14, 2:00 PM)97% (Oct 13, 4:00 AM)30.38 "Hg (Oct 13, 4:00 AM)
Low42 °F (Oct 19, 7:00 AM)35% (Oct 6, 2:00 PM)29.80 "Hg (Oct 15, 10:00 AM)
Average60 °F81%30.04 "Hg
* Reported Oct 6 2:00 PM — Oct 21 2:00 PM, Szeged, Weather by CustomWeather, © 2014

Note: Actual official high and low records may vary slightly from our data, if they occured in-between our weather recording intervals... More about our weather records

Advertising

Szeged weather history for previous 24 hours

 ConditionsComfort  
Time TempWeatherWind HumidityBarometerVisibility
2:00 PM
Oct 21
65 °FOvercast.2 mph73%29.86 "Hg7 mi
1:00 PM64 °FOvercast.1 mph79%29.88 "Hg6 mi
12:00 PM62 °FPartly sunny.2 mph85%29.90 "Hg5 mi
11:00 AM60 °FOvercast.1 mph89%29.90 "Hg6 mi
10:00 AM59 °FOvercast.2 mph92%29.91 "Hg4 mi
9:00 AM55 °FOvercast.1 mph97%29.91 "Hg4 mi
8:00 AM53 °FFog.1 mph97%29.89 "Hg2 mi
7:00 AM50 °FFog.1 mph97%29.89 "Hg2 mi
6:00 AM51 °FFog.3 mph97%29.90 "Hg2 mi
5:00 AM51 °FFog.3 mph97%29.91 "Hg2 mi
4:00 AM51 °FFog.3 mph97%29.93 "Hg3 mi
3:00 AM53 °FFog.2 mph96%29.95 "Hg3 mi
2:00 AM52 °FFog.3 mph96%29.96 "Hg3 mi
1:00 AM53 °FPassing clouds.3 mph95%29.96 "Hg4 mi
12:00 AM55 °FPassing clouds.2 mph95%29.97 "Hg5 mi
11:00 PM
Oct 20
56 °FCool.1 mph94%29.99 "HgN/A
10:00 PM57 °FPassing clouds.2 mph94%30.01 "Hg6 mi
9:00 PM59 °FPassing clouds.2 mph91%30.02 "Hg12 mi
8:00 PM61 °FPassing clouds.2 mph85%30.03 "Hg12 mi
7:00 PM63 °FOvercast.2 mph81%30.03 "Hg19 mi
6:00 PM69 °FOvercast.2 mph66%30.03 "Hg19 mi
5:00 PM75 °FPartly sunny.2 mph50%30.03 "Hg19 mi
4:00 PM77 °FPartly sunny.2 mph45%30.03 "Hg19 mi
3:00 PM77 °FOvercast.5 mph49%30.05 "Hg12 mi
Weather by CustomWeather, © 2014

See weather overviewHow to use our weather pages